Theta_e
321 326 328 327 327 327 327 323 320 319 319 314 314 316 315 318 317 315 316 316 317 318 316 316 314 315 318 319 320 320 319 322 323 320 321 318 308 305 308 313 318 319 320 321 322 323 324 325 324 325 326 327 329 329 330 331 331 332 333 333 333 334 334 334 334 334 335 335 335 335 336 336 336 337 337 336 337 336 336 336 336 336 337 337 338 338 339 339 339 339 340 340 340 339 339 339 339
321 325 327 327 327 329 327 323 320 317 315 313 314 316 316 318 316 316 317 316 319 318 316 316 315 316 316 316 318 319 319 318 318 318 317 311 307 305 306 312 315 317 319 319 320 321 323 323 322 323 323 324 325 325 326 327 328 329 330 330 331 331 332 332 332 332 332 333 333 334 335 335 335 335 335 334 335 335 335 335 335 335 336 337 338 338 338 338 338 338 339 339 339 338 339 339 339
322 325 326 327 327 327 326 322 319 314 313 312 314 317 316 317 317 317 317 317 319 317 316 315 315 315 315 317 317 318 320 316 314 314 312 310 309 305 305 311 313 315 316 318 319 319 321 321 321 321 321 322 322 322 322 323 324 325 325 326 327 328 329 329 330 330 330 330 330 331 332 332 332 333 332 332 332 333 333 333 333 333 334 335 336 337 337 337 337 338 337 338 338 337 338 338 338
324 325 326 328 327 326 327 324 321 315 312 312 313 316 316 317 317 316 317 318 317 315 315 315 315 312 313 318 316 317 319 315 314 313 311 310 308 304 304 309 311 313 314 316 316 317 319 319 319 319 319 319 319 320 319 320 320 320 321 321 322 323 324 325 325 326 326 326 326 326 327 328 328 328 328 328 328 329 330 330 330 330 331 332 333 334 335 335 335 336 336 337 337 337 336 336 337
324 324 325 329 329 326 326 323 321 316 313 314 314 316 317 317 317 316 317 317 314 313 313 314 315 311 311 314 313 317 318 314 313 311 310 308 304 302 303 306 308 310 311 313 314 315 317 317 318 317 317 316 316 316 316 317 316 317 317 317 318 318 319 319 320 320 321 321 321 322 322 323 323 323 323 323 324 324 326 327 327 327 328 329 330 331 331 333 334 335 336 336 336 336 336 335 336
322 322 322 325 324 320 321 319 317 316 316 319 317 317 317 316 317 316 316 315 312 311 311 313 314 313 313 311 310 313 313 312 312 309 308 305 301 300 301 302 304 306 308 310 312 313 314 314 314 313 313 312 311 311 311 311 312 312 312 312 312 312 313 313 314 315 315 316 316 316 317 317 318 318 318 318 319 320 321 321 322 323 324 325 326 327 328 330 332 333 334 334 335 335 334 334 334
322 322 321 322 320 318 321 318 316 318 317 318 317 317 317 316 317 317 315 314 313 311 311 312 312 315 315 311 310 309 308 309 310 308 306 303 299 298 298 299 300 302 305 306 307 308 309 309 308 307 306 305 305 304 304 304 305 305 305 306 305 305 306 306 307 307 308 308 309 309 310 310 311 311 312 312 313 314 315 315 316 317 318 319 320 322 323 325 327 328 329 330 331 332 331 331 332
321 321 321 322 321 319 320 318 318 320 316 314 314 314 316 316 316 316 315 315 314 312 312 312 311 315 314 310 313 309 306 308 307 305 303 301 298 297 296 297 298 299 300 301 302 303 303 303 303 303 302 302 301 301 301 300 300 300 300 300 300 300 300 300 300 300 301 301 301 302 303 303 303 303 304 304 305 306 307 307 309 311 312 313 314 315 316 318 320 321 323 324 326 327 327 328 328
319 320 320 321 321 319 318 318 318 318 316 314 313 313 315 316 316 317 316 315 314 313 313 312 311 314 313 311 312 308 306 306 303 302 300 299 297 296 296 297 297 297 297 297 298 299 299 300 300 301 301 301 300 300 300 299 299 299 299 298 298 298 298 298 298 298 298 298 298 298 298 298 298 298 299 299 299 299 300 300 302 304 305 306 308 309 310 311 312 314 316 317 319 320 321 322 324
319 319 321 322 319 317 315 316 317 317 316 314 312 312 314 314 315 316 316 316 314 313 312 310 310 312 313 313 311 308 307 304 302 302 299 298 297 296 295 296 297 296 296 296 296 296 297 298 298 298 299 299 299 299 299 298 298 298 298 297 297 297 297 297 297 297 297 297 297 297 297 297 297 297 297 297 297 297 297 297 298 299 299 300 301 302 303 304 305 307 308 310 311 313 315 317 318
320 319 319 320 316 314 313 315 317 318 315 313 312 312 313 313 314 315 316 315 313 314 311 309 311 311 312 313 310 307 305 303 302 301 299 298 297 296 295 296 296 296 296 296 296 296 296 296 297 297 297 297 297 297 297 297 297 297 296 296 296 296 296 296 296 296 296 296 296 296 296 296 296 296 296 296 296 296 296 296 296 297 297 297 297 297 298 299 300 301 302 303 304 306 308 311 313
321 321 320 319 317 315 315 316 318 319 315 314 313 312 312 312 314 315 315 315 313 313 311 310 312 312 313 313 310 305 303 302 301 301 299 298 297 297 296 295 295 295 295 295 295 295 295 295 296 296 296 296 296 296 296 296 296 296 296 296 296 296 296 296 296 296 296 296 296 296 296 296 296 296 296 296 296 296 296 296 296 296 296 296 296 296 296 296 297 297 298 298 299 301 302 304 307
320 322 321 318 318 319 318 317 318 318 316 316 314 311 311 312 313 315 315 314 313 314 312 310 310 311 313 312 308 304 303 302 301 300 298 298 298 297 296 295 295 295 294 295 295 295 295 295 295 295 295 295 296 296 296 296 296 295 296 295 296 295 296 296 296 296 296 296 296 296 296 296 296 296 296 296 296 296 296 296 296 296 296 296 296 296 296 296 296 296 296 297 297 297 298 300 302
319 320 321 319 317 318 318 317 317 316 316 316 313 309 310 312 312 313 314 314 315 312 310 309 309 311 312 310 308 305 304 302 300 299 298 298 298 297 296 295 294 294 294 294 294 294 295 295 295 295 295 295 295 295 295 295 295 295 295 295 295 295 295 295 295 295 295 295 296 295 295 296 295 295 295 295 295 295 295 295 295 295 295 295 295 296 296 296 296 295 296 296 296 296 297 297 298
318 318 321 320 318 317 317 317 317 316 317 315 311 308 311 309 307 311 312 314 314 308 306 307 308 311 311 312 311 307 305 302 300 299 298 297 297 297 297 296 295 294 294 294 294 294 294 295 295 295 295 295 295 295 295 295 295 295 295 295 295 295 295 295 295 295 295 295 295 295 295 295 295 295 295 295 295 295 295 295 295 295 295 295 295 295 295 296 296 296 296 296 296 296 296 296 296
316 318 320 319 317 317 317 316 316 316 316 314 309 308 311 308 306 310 309 309 311 306 306 308 307 308 309 310 309 307 305 301 300 299 298 297 297 297 296 296 296 295 294 294 294 294 294 295 295 294 295 295 295 295 295 295 295 295 295 295 295 295 295 295 295 295 295 295 295 295 295 295 295 295 295 295 295 295 295 295 295 295 295 295 295 295 295 295 295 295 295 295 296 295 296 296 296
316 319 319 316 316 316 317 317 316 316 315 312 307 308 312 309 305 306 304 304 309 307 306 308 306 304 306 306 303 305 304 300 300 300 299 299 297 297 297 297 296 296 295 294 294 294 294 294 294 294 294 294 295 295 295 295 294 295 295 295 295 295 295 295 295 295 295 294 294 294 294 294 294 294 294 294 294 294 294 294 295 294 295 295 295 295 295 295 295 295 295 295 295 295 296 296 296
318 320 318 315 317 317 317 318 316 315 315 312 308 309 312 311 307 305 305 306 307 307 306 306 305 303 304 302 301 303 303 300 300 300 300 300 298 297 297 297 297 297 296 295 294 294 294 294 294 294 294 294 294 294 294 294 294 294 294 294 294 294 294 294 294 294 294 294 294 294 294 294 294 294 294 294 294 294 294 294 294 294 294 294 294 294 294 294 294 294 295 295 295 295 295 295 296
318 320 317 316 319 317 315 315 314 314 314 312 310 309 310 312 309 306 308 310 307 307 308 306 305 305 304 301 301 303 302 301 300 300 300 300 299 298 298 298 297 297 297 296 295 293 294 294 294 294 294 294 294 294 294 294 294 294 294 294 294 294 294 294 294 294 294 294 294 294 293 293 293 293 293 293 294 293 293 293 294 294 294 294 294 294 294 294 294 294 294 294 294 295 294 295 295
316 317 317 317 318 316 313 313 313 312 312 312 310 308 308 310 309 307 309 311 308 309 311 308 307 307 306 302 302 303 302 301 301 300 301 300 300 298 298 298 297 297 297 296 295 293 293 293 293 293 294 294 294 294 294 294 294 294 294 294 294 294 294 294 294 294 294 294 293 293 293 293 293 293 293 293 293 293 293 293 293 293 293 293 293 293 293 293 293 293 294 294 294 294 294 294 295
315 314 316 316 314 315 314 311 312 310 309 311 310 308 308 308 307 307 310 311 310 310 312 311 310 310 307 303 303 303 303 302 301 301 301 300 300 299 298 298 297 297 296 296 295 293 293 293 293 293 293 293 294 294 294 294 293 293 293 293 293 293 293 293 293 293 293 293 293 293 292 292 292 292 292 292 292 292 292 292 292 292 292 292 292 292 292 292 293 293 293 293 294 294 294 294 294
314 313 313 312 311 314 313 309 309 308 307 310 309 309 309 307 306 307 309 311 313 312 311 312 311 311 307 303 303 304 303 303 302 301 301 300 300 299 298 298 297 297 296 296 295 294 293 293 293 293 293 293 293 293 293 293 293 293 293 293 293 293 293 293 293 293 293 293 293 292 292 292 292 292 292 292 292 292 292 292 292 292 292 292 292 292 292 292 292 292 292 293 293 293 293 294 294
314 314 310 310 311 313 311 308 308 306 308 310 309 310 308 307 308 308 308 311 312 309 307 308 310 310 307 304 304 303 303 304 302 301 301 300 300 299 298 297 297 296 296 295 295 294 293 292 293 292 293 293 293 293 293 293 293 293 293 293 293 293 293 292 293 292 292 292 292 292 292 292 292 292 292 291 291 291 291 291 291 291 291 291 291 291 291 291 291 291 292 292 292 292 293 293 294
312 314 312 310 309 310 310 308 307 306 308 309 307 308 308 309 310 308 307 309 310 306 303 304 307 307 306 304 303 303 304 304 303 302 301 300 300 299 298 297 296 296 296 295 295 294 293 292 292 292 293 293 293 293 293 293 292 292 292 292 292 292 292 292 292 292 292 292 292 292 292 291 291 291 291 291 291 291 291 291 291 291 291 291 291 291 291 291 291 291 291 291 291 292 292 293 294
312 314 313 310 308 309 308 306 306 305 307 306 305 308 309 309 308 306 307 309 309 306 303 302 304 305 304 303 303 303 304 304 303 302 301 300 299 298 298 297 296 296 296 295 294 294 293 292 292 292 292 292 293 293 292 292 292 292 292 292 292 292 292 292 292 292 292 291 291 291 291 291 291 291 290 290 290 290 290 290 290 290 290 290 290 290 290 290 290 290 290 290 290 291 291 292 294
313 313 312 311 310 309 307 306 307 306 306 305 307 311 309 306 306 308 309 309 309 307 304 303 303 303 303 303 303 303 303 304 304 302 301 300 299 298 298 297 296 296 296 295 294 294 293 292 292 292 292 292 292 292 292 292 292 292 292 292 292 291 291 291 291 291 291 291 291 291 291 290 290 290 290 290 290 289 289 289 289 289 289 289 289 289 289 289 290 289 289 289 289 290 291 292 293
312 312 311 310 311 309 307 308 306 305 307 306 309 312 309 304 306 312 310 306 306 306 304 303 302 303 303 303 303 303 303 303 303 302 300 299 298 298 298 297 296 295 295 295 294 294 293 292 292 292 292 292 292 292 292 292 292 292 292 291 291 291 291 291 291 291 291 291 290 290 290 290 290 290 289 289 289 288 288 288 288 288 288 288 288 289 289 289 289 289 289 289 289 289 290 291 292
309 309 311 310 309 309 308 308 307 307 309 306 308 311 309 306 307 312 309 302 303 305 304 302 302 304 303 303 303 303 303 303 302 301 300 299 298 298 298 297 296 295 295 294 294 293 292 292 292 292 292 292 292 292 292 292 292 291 291 291 291 291 291 291 291 290 290 290 290 290 290 289 289 289 288 288 288 288 288 288 288 288 288 288 288 288 288 289 288 288 288 288 289 289 289 290 292
307 308 312 313 311 312 310 308 307 308 310 306 307 310 310 309 309 311 308 301 302 304 304 303 302 303 303 303 302 302 302 302 301 300 300 300 298 298 298 297 296 295 295 294 294 293 292 292 292 292 292 292 292 292 292 291 291 291 291 291 291 291 290 290 290 290 290 290 289 289 289 289 288 288 287 287 287 287 287 287 288 288 288 288 288 288 288 288 288 288 288 288 288 288 289 290 291
309 309 312 314 314 314 310 307 306 308 309 306 308 311 314 313 312 312 307 301 302 303 304 303 302 302 302 302 301 301 301 301 301 300 300 299 299 298 297 297 296 295 295 294 293 292 292 292 291 292 291 292 292 292 291 291 291 291 291 290 290 290 290 290 289 289 289 289 289 289 289 288 288 287 287 287 287 287 287 286 287 287 287 287 288 288 288 288 288 287 287 287 288 288 289 289 289
311 311 311 314 314 314 310 307 307 310 308 305 309 312 315 316 315 312 306 302 303 305 306 305 303 302 301 301 301 300 301 301 300 300 299 299 298 298 297 297 295 295 295 294 293 292 292 291 291 292 291 291 291 291 291 291 291 290 290 290 290 290 289 289 289 289 289 289 288 288 288 288 287 287 287 287 286 286 285 285 286 286 286 287 287 287 287 287 287 287 287 287 287 288 289 288 288
312 311 313 316 313 314 313 308 308 311 308 305 310 313 315 316 315 310 303 302 303 305 307 306 304 302 301 301 300 300 300 300 300 299 299 298 298 297 297 296 295 295 294 293 293 292 292 291 291 291 291 291 291 291 291 291 290 290 289 289 290 289 289 289 289 288 288 288 288 288 288 287 287 286 286 286 285 285 284 284 285 285 286 286 286 286 286 286 286 286 286 286 287 288 288 287 288
314 312 314 316 314 314 314 309 306 309 309 307 309 312 315 315 313 306 300 301 302 303 306 306 305 303 301 301 300 300 300 300 299 299 298 297 297 296 296 296 294 294 294 293 293 292 292 291 291 291 291 291 291 291 290 290 290 289 289 289 289 289 289 288 288 288 288 288 288 287 287 287 286 286 285 285 284 284 283 284 284 285 285 285 285 285 285 285 285 285 286 286 286 287 287 287 287
315 314 314 315 315 312 313 312 307 305 308 310 309 310 313 314 312 307 302 301 302 303 305 306 306 304 302 302 301 300 300 300 299 299 298 297 296 295 295 295 294 293 293 293 292 292 292 291 291 291 291 291 290 290 290 289 289 289 289 289 289 289 288 288 288 288 288 287 287 287 286 286 285 285 284 284 283 283 283 283 283 284 284 284 284 284 284 284 285 285 285 286 286 286 286 286 287
314 314 313 314 314 312 313 313 309 306 308 309 310 310 311 313 313 312 307 302 303 306 306 306 306 304 303 302 301 300 300 300 300 300 298 297 296 295 294 295 294 293 293 293 292 292 292 291 291 291 290 290 290 289 289 289 289 289 289 289 289 288 288 288 288 288 287 287 287 286 286 285 284 284 284 283 283 282 282 282 283 283 283 283 283 284 284 284 285 285 285 285 285 285 285 285 286
315 315 315 314 314 313 314 313 307 306 309 310 311 311 312 313 312 313 311 306 305 307 307 307 306 305 304 303 302 301 300 300 301 300 299 297 296 295 294 294 293 293 292 292 292 292 292 291 291 290 290 290 289 289 288 288 288 288 288 288 288 288 288 287 287 287 286 286 286 286 285 285 284 283 283 283 282 282 282 282 282 282 283 282 282 283 284 284 284 284 284 284 284 285 285 285 285
315 317 316 316 316 315 315 312 305 304 309 312 312 312 311 312 312 312 312 309 307 307 308 308 307 305 305 304 302 301 301 301 301 300 299 297 296 295 294 293 293 293 292 292 292 292 292 291 291 290 290 289 289 289 288 288 288 288 288 288 288 288 287 287 287 286 286 286 286 285 285 284 284 283 283 282 282 281 281 282 282 282 282 282 282 282 283 282 282 283 283 284 284 284 285 285 285
313 316 316 316 317 315 314 310 305 304 308 312 312 311 311 311 311 311 311 310 309 309 309 309 308 307 306 305 303 302 301 302 301 300 299 298 296 295 294 293 293 293 292 292 292 292 292 291 290 290 290 289 289 289 289 289 288 288 288 288 288 287 287 287 286 286 286 285 285 285 285 284 284 283 283 282 282 281 281 281 282 281 282 282 282 282 282 282 282 283 283 283 284 284 284 285 284
312 314 315 316 316 315 313 309 305 304 308 312 311 310 311 311 311 311 311 311 312 311 311 310 310 309 307 306 304 303 302 302 301 299 299 298 296 295 294 293 293 293 292 292 292 292 291 291 290 290 290 289 289 289 289 289 288 288 288 287 287 286 286 286 286 286 285 285 285 285 284 284 283 283 282 282 282 281 281 281 281 281 281 281 281 282 282 282 282 283 283 283 284 284 284 284 284
313 315 315 316 317 316 313 310 305 305 307 309 310 309 311 311 311 312 312 311 311 312 312 311 311 311 309 308 306 304 303 302 301 300 299 298 297 296 295 294 293 293 293 292 292 292 291 291 290 290 290 289 289 289 288 288 288 288 287 286 286 286 286 286 286 285 285 285 284 284 284 284 283 283 282 282 281 281 280 280 280 281 281 281 281 282 282 282 282 282 282 282 283 283 284 284 284
315 316 316 317 317 316 314 311 307 308 308 306 308 311 312 314 314 314 311 308 308 309 309 310 310 310 309 308 307 305 304 304 302 301 299 297 297 296 295 294 293 293 293 292 292 292 291 291 290 290 290 289 289 289 288 288 287 287 286 285 285 285 285 285 285 285 285 284 284 284 284 283 283 282 282 282 281 280 280 280 280 280 281 280 281 281 281 282 282 282 282 282 282 283 283 283 283
316 316 316 316 316 316 314 312 310 312 313 308 309 311 312 315 315 315 313 309 310 309 308 311 310 309 308 307 306 306 305 304 303 302 300 298 297 296 295 295 293 293 293 292 292 291 291 290 290 290 289 289 288 288 288 287 286 286 285 286 286 286 286 286 286 286 286 285 284 284 284 283 283 283 282 282 281 280 280 280 280 280 281 280 280 281 281 281 281 281 281 282 282 282 282 283 283
316 315 315 314 314 314 313 312 312 314 315 310 309 312 313 314 312 315 316 315 316 314 313 317 315 311 309 306 306 306 305 305 303 302 301 298 298 297 296 295 294 293 293 292 291 291 291 290 290 289 289 289 288 288 288 287 286 286 285 286 286 287 288 287 286 285 285 285 285 285 284 284 284 283 283 282 281 280 280 280 280 281 281 280 280 280 280 281 281 281 281 281 281 281 281 282 282
317 313 312 312 312 313 313 312 313 313 312 310 311 312 314 314 313 314 316 315 317 316 315 316 316 315 313 308 306 306 306 305 304 303 301 299 298 297 296 295 294 293 293 292 291 291 291 290 290 289 289 288 288 288 287 286 286 286 285 285 285 286 286 286 285 284 284 284 285 285 284 284 283 283 283 282 281 280 279 279 280 280 280 280 279 280 280 280 280 280 280 280 281 281 281 281 282
314 308 308 309 310 311 312 312 312 311 310 311 313 312 313 315 314 312 313 313 313 314 314 314 314 316 316 312 307 306 306 305 304 303 302 300 299 298 297 295 294 293 292 292 291 291 290 290 290 289 289 288 288 287 286 286 286 285 285 285 285 285 285 284 284 283 283 283 283 283 283 283 283 282 282 281 280 279 279 279 279 280 280 279 279 279 279 279 280 280 280 280 280 280 280 280 281
309 305 306 307 308 308 309 310 311 310 310 313 314 312 312 314 314 311 311 313 313 313 314 314 315 315 316 313 309 307 306 305 304 303 302 302 300 298 297 296 294 293 292 291 291 290 290 290 289 289 288 288 287 287 286 286 286 285 285 284 284 285 284 284 283 282 282 282 282 282 282 282 281 281 281 280 279 279 279 279 280 280 280 280 279 279 279 279 279 279 279 279 279 279 280 280 280
305 307 310 310 308 307 306 308 309 311 314 315 314 314 312 312 315 313 311 313 314 314 314 315 315 315 314 312 309 308 306 304 304 303 302 302 301 299 297 295 294 293 292 291 291 290 290 290 289 289 288 288 287 286 286 286 285 285 284 284 284 284 283 283 283 282 282 282 281 281 281 281 281 281 280 279 279 278 279 280 281 281 281 280 280 279 279 279 279 279 279 279 279 279 279 279 279
306 311 312 313 312 309 308 308 309 312 316 313 311 313 313 312 314 313 312 312 312 314 314 314 315 316 316 315 309 307 306 304 304 303 302 301 300 299 297 296 294 293 292 291 290 290 290 289 289 289 288 287 287 286 286 285 285 284 284 284 283 283 283 282 282 282 282 282 281 281 280 280 280 280 279 279 279 278 279 280 281 281 280 280 279 279 278 278 278 278 278 278 278 278 279 279 279
308 311 312 315 316 313 314 313 311 313 315 310 307 310 312 312 313 312 312 311 310 312 313 315 315 315 319 318 310 306 305 304 303 303 302 301 300 299 298 296 295 293 292 291 291 290 289 289 289 289 288 287 286 286 286 285 284 284 284 283 283 282 282 281 281 281 281 281 281 280 280 280 280 280 279 279 279 278 279 280 280 280 280 279 279 278 278 278 277 278 278 278 278 278 278 278 278
309 312 313 316 316 315 316 314 311 313 315 308 304 308 311 311 311 312 311 311 311 311 312 316 315 314 317 316 309 306 305 303 303 303 302 301 300 299 298 296 295 293 292 291 291 290 289 289 289 289 288 287 286 286 285 285 284 284 283 283 282 282 281 281 281 280 280 280 280 279 279 279 279 279 279 278 278 278 279 280 280 280 280 279 279 278 278 277 277 277 277 277 278 278 278 278 278
309 312 313 315 315 314 314 312 311 313 314 309 305 308 312 310 311 313 312 311 312 312 313 315 312 311 312 310 306 305 305 303 303 302 302 301 300 300 298 296 295 294 292 291 291 290 289 289 289 289 288 287 286 286 285 284 284 283 283 282 282 281 281 280 280 280 279 279 279 279 278 278 278 278 278 277 277 278 279 279 280 279 279 279 278 277 277 277 277 277 277 277 277 277 277 277 278
309 309 311 314 314 312 312 313 312 312 313 311 308 310 311 310 311 311 311 311 311 311 312 313 311 310 311 309 306 305 304 303 302 302 302 301 300 299 298 296 295 294 292 291 291 290 289 289 289 289 288 287 286 285 285 284 284 283 282 282 281 280 280 279 279 279 279 279 278 278 277 277 277 277 277 277 277 278 278 279 278 278 278 277 277 276 276 276 276 276 277 277 277 277 277 277 277
309 308 311 312 311 311 312 313 311 309 312 314 312 312 312 311 311 310 310 311 312 311 311 310 311 311 311 311 310 309 307 305 304 302 301 300 299 299 298 297 295 294 292 291 291 290 289 289 288 288 288 287 286 285 285 284 283 282 282 281 281 280 280 279 279 279 278 278 277 277 277 277 276 276 276 276 276 277 278 278 277 277 277 276 276 276 276 276 276 276 276 276 276 276 276 277 277
308 310 312 311 309 310 311 312 312 311 314 315 314 313 312 312 313 310 309 311 311 312 312 310 310 310 311 311 312 311 309 307 305 302 301 299 299 298 298 296 295 294 293 292 291 290 289 289 288 288 288 287 286 285 284 284 283 282 281 281 280 280 280 279 279 278 277 277 277 276 276 276 276 276 276 276 276 277 277 277 277 276 276 275 275 275 275 275 275 275 276 276 276 276 276 276 276
305 307 308 309 311 312 311 311 313 314 315 315 315 314 312 312 313 310 309 311 311 311 311 310 309 309 309 309 310 310 308 307 305 302 300 299 298 298 297 296 295 294 293 292 291 290 289 289 288 288 288 287 286 285 284 283 283 282 281 281 280 280 279 279 278 278 277 277 277 276 276 276 276 275 275 276 276 277 277 276 275 275 275 275 275 275 275 275 275 275 275 275 275 275 275 275 275
303 304 305 306 309 312 312 311 311 313 315 315 316 315 314 313 313 312 311 312 312 312 311 311 309 309 309 309 309 310 310 310 308 304 301 299 298 298 297 296 295 294 292 291 291 290 289 289 288 288 287 287 286 285 284 283 282 282 281 280 280 279 278 278 278 277 277 277 277 276 276 275 275 275 275 276 277 277 276 275 274 274 274 274 274 274 274 274 274 274 274 274 274 274 274 274 275
304 306 307 306 306 308 309 309 309 311 313 313 314 315 314 312 313 313 312 312 313 312 312 312 311 309 309 309 310 311 311 310 308 305 303 300 298 297 296 295 294 293 292 291 290 289 289 289 288 288 287 286 285 284 284 283 282 281 281 280 279 278 278 277 277 277 277 277 276 276 276 275 275 276 276 276 277 276 275 274 274 273 273 273 273 273 273 273 273 273 273 273 273 273 274 274 275
308 308 309 308 308 309 310 311 310 309 311 312 313 314 314 312 312 313 312 312 312 313 313 312 311 310 309 308 310 310 310 309 307 304 302 300 298 296 295 294 293 292 291 291 290 289 289 288 288 287 287 286 285 284 283 282 281 281 280 279 278 277 277 277 276 276 276 276 276 276 275 275 275 275 276 277 277 275 274 274 273 273 272 272 272 272 272 272 272 272 273 273 273 273 273 273 274
Wind_Speed
4 5 3 2 2 1 2 1 2 1 2 1 2 1 4 5 1 5 7 6 4 3 2 1 2 2 2 1 1 3 4 0 1 1 1 4 5 3 5 6 6 5 4 3 2 4 8 7 6 5 4 3 2 2 2 3 4 4 4 4 6 7 7 8 8 8 8 8 9 9 9 8 8 8 8 8 7 8 8 8 8 8 8 8 8 8 9 9 8 8 9 9 9 9 10 9 9
4 4 2 1 1 2 1 0 3 2 3 2 3 2 4 6 4 8 11 9 3 5 4 3 4 3 2 4 3 2 1 4 5 2 3 6 7 4 5 8 8 7 6 5 4 5 6 6 6 5 5 5 4 5 4 4 3 3 3 4 3 4 4 5 5 6 7 7 9 9 8 8 7 7 7 7 7 7 7 8 8 7 7 7 8 8 9 9 9 9 9 9 10 10 10 9 9
5 3 1 1 1 2 1 1 4 2 4 2 3 4 5 7 9 8 8 7 6 8 8 6 5 3 1 2 1 2 1 3 3 3 4 7 5 4 6 8 8 7 6 6 6 6 6 6 5 5 5 5 5 5 5 5 5 5 4 4 4 3 3 3 4 4 5 5 6 7 6 5 4 4 5 5 6 6 6 7 6 6 6 6 7 7 8 9 9 9 10 10 10 11 11 10 10
4 3 2 2 1 1 2 3 3 3 4 2 1 6 8 9 9 5 6 8 9 9 7 7 5 2 3 5 2 1 1 3 3 2 4 6 3 5 8 8 8 7 7 7 8 6 6 6 6 5 5 5 5 5 5 6 6 6 5 5 5 5 5 4 4 4 4 5 5 5 5 4 4 4 4 4 4 4 4 5 4 5 5 5 6 7 7 8 9 10 10 10 11 11 11 11 11
3 3 2 2 2 1 1 2 1 4 3 1 0 6 10 8 8 7 8 9 10 6 4 6 4 2 2 1 0 1 3 4 4 3 4 5 6 8 9 9 9 8 8 8 8 7 6 7 6 6 5 5 4 4 5 5 6 6 6 6 6 5 5 5 5 5 4 5 5 5 5 5 5 5 5 5 4 4 3 4 4 5 5 5 6 6 6 7 8 8 9 9 10 11 11 11 11
3 3 3 1 1 1 2 3 3 5 1 0 1 4 10 8 8 11 10 9 7 2 1 4 2 3 3 1 1 2 2 2 5 5 4 8 10 11 10 10 9 9 9 9 9 8 7 7 7 6 6 6 6 5 5 5 5 6 6 6 6 6 6 6 5 5 5 5 5 5 6 6 6 6 6 6 6 5 5 6 6 6 7 7 7 7 7 6 7 7 8 7 8 10 11 11 11
4 2 2 1 2 1 4 4 4 5 1 0 2 2 10 8 9 13 12 9 6 4 3 5 2 4 2 2 3 1 2 0 3 7 7 11 13 12 12 11 10 10 9 9 10 10 10 10 9 8 8 8 8 7 7 6 6 6 6 6 6 6 6 6 6 6 6 6 6 5 6 6 6 6 6 6 6 7 7 7 8 8 8 8 8 8 9 8 9 9 10 10 9 10 12 12 12
3 0 0 2 2 1 4 4 4 3 1 1 2 1 6 11 11 13 14 10 6 6 6 6 4 4 2 2 3 3 2 1 4 8 12 14 15 14 13 11 10 11 10 10 11 11 11 11 11 10 9 9 8 8 8 7 7 6 6 6 6 6 6 6 6 6 6 6 6 6 6 6 7 7 7 7 7 7 8 8 8 9 9 9 9 9 10 10 10 11 12 12 13 13 14 14 14
1 1 1 2 2 2 4 4 3 2 1 1 1 2 3 10 12 12 14 9 4 6 7 8 7 4 4 5 2 3 4 5 8 11 14 15 16 15 14 12 12 13 12 11 11 11 12 11 11 10 10 9 8 8 7 6 6 5 5 5 5 5 5 5 6 6 6 6 7 7 7 7 7 7 8 8 8 8 8 8 8 9 9 10 10 11 11 11 11 11 13 14 14 15 16 16 16
1 1 1 2 2 3 4 3 2 1 1 1 1 2 4 9 10 10 13 9 4 6 6 6 5 5 4 6 2 2 6 10 12 13 15 16 16 15 14 14 14 14 13 12 12 11 11 11 10 9 9 8 8 7 6 5 5 4 4 4 4 4 5 5 5 6 6 7 7 7 8 8 8 8 9 9 10 10 9 9 9 9 10 10 11 11 12 12 12 12 13 14 15 16 17 17 18
2 1 0 2 4 4 4 3 3 1 1 1 2 4 5 8 8 7 9 6 4 5 6 6 4 6 4 3 1 3 9 14 14 14 15 17 16 14 14 14 14 14 13 13 12 11 11 10 9 8 8 7 7 6 6 5 4 4 4 4 5 5 5 6 6 6 7 7 8 8 8 8 9 9 10 10 11 11 10 10 10 10 11 11 11 11 12 12 12 13 13 14 15 16 17 18 19
2 2 2 4 4 4 2 3 3 1 1 3 5 5 5 8 8 8 10 7 5 6 8 8 3 5 6 3 1 6 12 16 14 15 17 17 15 15 14 14 14 13 13 12 11 11 11 9 9 8 7 6 6 6 6 5 5 5 5 5 6 6 7 7 7 8 8 8 9 9 9 9 10 10 10 10 10 10 10 10 10 10 10 11 12 12 12 12 12 12 13 13 14 15 16 17 19
2 1 3 3 1 2 2 3 2 1 3 5 6 6 7 11 10 9 10 7 7 8 7 9 3 3 6 1 3 7 13 17 15 17 18 15 14 16 14 13 13 12 11 11 10 10 10 9 8 8 7 6 6 6 6 6 6 6 6 6 7 7 7 8 8 8 9 9 10 10 11 11 11 11 11 12 12 11 11 11 10 10 11 11 11 12 12 13 13 13 13 14 14 15 16 17 18
1 1 3 2 0 2 2 3 1 3 4 5 5 7 9 9 6 5 8 10 10 6 2 5 4 4 4 2 4 6 13 19 18 18 17 14 15 16 14 14 13 12 11 11 10 10 9 9 8 8 7 7 7 6 6 7 6 6 6 6 7 7 7 8 8 9 9 9 10 10 11 11 12 13 13 14 14 14 14 14 14 14 14 14 14 13 13 13 14 14 14 15 16 16 17 18 18
1 1 2 2 1 2 3 2 1 5 4 6 6 8 10 4 1 4 8 11 7 3 3 3 4 3 3 6 4 5 16 22 21 19 17 16 15 15 15 15 13 13 12 11 11 10 10 9 9 8 8 8 7 7 7 6 6 6 6 6 6 6 7 7 8 8 9 9 9 9 9 10 10 11 12 13 14 15 15 16 16 16 17 17 17 17 16 16 16 15 15 16 16 17 18 19 19
1 1 1 3 2 2 3 3 1 4 2 6 5 8 11 4 2 5 3 3 1 4 4 5 6 2 1 4 2 3 20 24 22 20 18 16 14 13 14 14 12 12 13 11 11 11 11 10 9 9 8 8 7 7 7 6 6 5 5 5 5 6 6 7 8 8 8 9 9 9 9 10 10 10 11 11 12 13 13 14 15 15 16 17 17 18 18 19 19 18 18 18 18 18 18 18 18
1 2 3 3 3 2 3 5 4 2 1 6 6 9 11 6 3 3 1 2 2 5 7 6 5 3 2 1 5 5 22 25 23 21 18 16 14 13 13 12 11 11 12 11 10 10 11 10 10 9 9 8 7 7 6 6 6 5 5 5 5 5 6 7 8 8 9 9 10 10 11 12 13 13 13 13 13 13 13 14 14 14 15 15 16 17 17 18 19 20 20 20 21 21 20 20 19
2 2 3 4 3 3 3 5 4 1 1 5 8 10 11 7 6 4 3 5 4 4 8 6 6 7 6 2 3 9 23 25 24 22 19 17 15 14 13 13 12 11 11 10 10 11 11 10 10 9 9 8 7 7 6 6 6 5 4 4 5 6 6 7 8 8 9 10 11 12 13 13 14 14 15 15 15 15 15 16 16 16 16 16 17 17 17 18 18 19 20 21 22 22 23 23 23
2 1 3 4 2 1 1 3 3 1 1 4 8 9 8 6 8 7 6 8 7 8 9 8 9 11 10 5 4 14 24 25 25 24 22 20 18 17 15 13 13 12 12 11 11 12 11 11 10 10 9 8 7 6 5 6 6 5 4 5 5 6 6 7 8 8 9 10 11 12 12 12 13 13 14 14 15 15 16 16 17 17 17 18 19 19 19 20 20 21 21 22 23 24 25 24 23
1 1 5 3 1 3 2 4 4 2 1 3 7 6 6 4 6 7 7 6 9 12 11 9 13 16 13 10 11 18 24 25 25 24 23 22 20 18 16 15 15 14 13 12 12 14 13 12 11 10 9 8 7 6 5 5 5 4 4 4 5 5 6 7 7 8 9 9 10 11 12 12 12 13 13 14 15 15 16 16 17 17 18 19 19 20 21 22 22 23 23 24 24 24 25 24 23
1 2 4 1 1 3 2 4 3 2 1 3 6 5 6 4 5 7 7 6 9 13 14 14 16 17 14 13 15 20 24 25 25 25 24 23 21 18 16 15 15 14 14 13 13 15 14 13 12 11 10 9 8 7 6 5 5 4 4 4 4 5 5 6 7 7 8 9 10 11 11 12 13 14 14 15 16 16 16 17 18 18 19 19 20 21 21 22 23 23 24 24 23 23 24 23 23
2 3 2 2 1 3 1 2 2 3 1 3 6 6 5 5 5 9 10 11 9 6 11 15 15 11 13 16 18 21 23 25 26 26 25 24 23 20 17 15 13 13 14 14 13 14 14 14 13 11 10 9 8 8 6 5 5 4 3 3 3 4 5 5 6 7 8 9 10 11 12 13 14 14 15 16 16 17 18 18 19 20 20 21 21 22 22 22 23 23 23 22 22 22 23 23 23
3 3 1 1 3 3 2 2 2 3 4 5 5 4 5 6 7 9 13 18 7 4 1 7 9 7 13 17 18 20 22 24 27 29 28 27 26 24 20 17 15 15 15 14 13 13 15 15 14 12 11 10 9 8 6 5 5 4 3 3 3 3 4 5 6 7 8 9 10 11 12 13 13 14 15 15 16 17 17 18 19 19 20 21 21 22 23 23 23 23 23 23 23 22 22 22 21
4 2 2 2 3 5 2 2 2 3 4 3 2 2 5 10 7 2 13 21 10 3 3 1 4 7 13 16 18 20 22 25 28 30 29 27 27 24 21 19 17 17 17 15 14 14 15 16 14 13 11 11 10 8 7 6 5 4 3 3 3 3 4 4 5 6 7 8 9 10 10 11 12 12 13 14 15 15 16 17 18 19 19 20 21 22 22 23 23 23 23 24 24 23 23 22 19
5 3 1 2 2 5 2 1 2 3 3 0 2 5 5 7 2 3 15 19 13 7 4 3 4 8 12 15 18 19 20 24 26 26 26 23 22 21 19 19 17 18 18 17 16 15 16 17 14 13 12 11 10 9 7 6 5 4 4 3 3 3 3 3 3 4 5 6 7 8 8 9 10 10 12 12 14 15 16 17 18 18 19 19 21 21 21 23 24 23 23 23 23 23 22 20 18
5 3 1 3 2 3 1 2 2 2 3 2 5 8 3 2 3 9 17 14 11 10 6 6 7 9 12 14 17 18 18 21 25 24 24 20 18 20 21 20 19 19 19 18 18 16 17 18 15 14 14 13 11 9 8 7 6 5 4 3 3 2 2 2 2 3 4 5 6 7 7 8 9 9 11 12 13 14 15 16 17 17 17 18 19 20 21 22 23 23 23 23 23 21 19 18 17
1 1 1 4 3 1 1 2 1 1 3 4 8 9 2 3 2 10 7 2 6 9 8 8 9 11 13 13 15 17 18 21 24 22 21 19 19 22 23 22 21 20 19 19 18 17 19 18 16 16 15 13 12 10 9 8 7 5 4 4 3 2 1 0 1 2 3 4 5 5 7 7 8 9 10 11 12 13 14 15 16 17 17 18 19 20 21 23 23 23 23 24 24 22 20 17 16
1 1 3 5 5 4 5 5 2 2 3 5 6 9 5 3 6 14 3 5 6 9 10 10 11 12 12 14 13 13 16 20 21 20 22 24 24 25 25 25 24 21 21 21 19 19 21 18 17 16 15 14 13 11 10 8 7 6 5 4 4 3 2 1 1 2 2 3 4 5 6 7 8 9 10 11 12 12 13 14 16 17 18 19 20 21 22 23 24 23 23 25 24 22 22 18 16
0 1 4 4 5 6 6 4 2 3 3 5 3 7 9 9 15 16 4 6 6 7 9 10 12 12 11 12 11 11 14 16 18 21 25 27 25 25 25 25 25 23 21 21 21 22 21 19 18 17 16 15 13 12 11 9 8 7 6 6 5 4 3 3 2 2 2 3 4 5 6 7 8 8 9 11 12 13 14 15 16 17 18 20 21 22 23 23 24 24 25 25 24 23 20 17 17
1 2 3 3 5 5 4 2 2 4 2 4 3 7 8 13 20 14 6 7 6 7 10 10 10 10 9 10 10 11 13 16 19 23 25 24 22 23 24 24 26 24 20 21 24 24 22 21 20 18 17 16 14 13 12 11 10 9 8 7 6 5 4 4 3 3 3 4 4 5 6 7 7 8 9 11 12 13 14 14 15 17 18 20 21 22 23 23 23 24 24 24 23 21 18 18 20
1 1 1 2 5 1 4 3 4 6 2 3 5 7 8 8 12 8 6 8 8 8 12 10 10 9 9 10 10 11 13 17 21 23 23 22 20 22 24 23 26 26 22 24 26 24 23 23 22 20 19 17 16 15 13 13 12 11 10 9 8 6 5 5 4 4 4 4 5 5 6 7 8 8 9 11 12 12 13 13 14 15 18 20 20 21 22 23 23 23 24 22 20 18 17 21 22
1 2 3 2 3 1 3 4 6 5 1 4 7 6 11 8 4 4 4 6 8 11 13 11 11 10 10 10 11 11 12 16 20 21 22 22 20 22 24 24 28 28 25 28 27 24 24 23 22 21 20 19 17 16 15 15 13 12 12 10 8 7 6 6 6 6 5 6 6 6 7 7 8 9 10 11 12 12 13 13 13 15 17 18 19 20 21 20 20 22 22 19 18 17 18 21 22
2 3 5 2 4 3 1 4 4 3 2 6 9 7 10 7 2 4 3 5 7 10 13 13 12 11 11 11 10 11 11 13 17 21 23 23 22 23 24 25 30 31 27 29 28 26 25 23 23 22 21 20 18 18 17 15 14 13 12 10 9 8 8 8 7 7 7 7 7 7 8 8 9 9 10 11 12 13 13 14 14 15 17 17 18 19 19 18 18 18 17 16 16 16 18 19 20
2 2 4 4 4 4 3 2 3 3 4 8 10 9 15 15 5 3 5 7 7 10 13 15 12 11 11 11 10 11 11 12 15 21 25 25 23 23 25 24 31 34 29 29 30 28 26 24 25 23 22 21 19 19 17 16 15 14 13 11 10 9 9 9 9 9 8 8 8 8 8 9 9 10 10 11 12 13 14 14 15 15 16 17 17 18 19 18 16 14 14 15 15 15 16 17 19
4 4 5 5 5 6 6 3 3 5 5 8 10 12 18 22 16 9 7 9 9 13 14 15 13 12 12 11 12 11 12 14 16 20 25 25 23 23 25 25 30 35 31 29 30 28 26 25 25 24 23 22 20 20 18 17 16 14 13 11 11 11 10 10 10 10 10 10 10 9 9 9 10 10 11 12 12 13 14 14 15 15 16 16 16 17 17 15 14 14 15 15 15 14 16 17 18
5 5 5 7 6 8 6 2 2 4 5 10 13 14 18 21 20 17 11 9 10 16 16 15 13 12 12 12 11 11 13 16 15 17 21 24 23 24 26 27 31 35 33 29 29 29 27 26 26 24 24 23 22 20 19 18 16 15 14 12 13 12 11 11 11 12 11 11 11 10 10 10 10 11 12 12 13 14 14 15 16 16 15 15 15 15 14 15 15 16 16 15 16 15 15 15 16
3 2 4 7 8 10 5 4 3 2 4 11 14 14 17 20 19 19 16 8 10 16 19 17 13 12 13 13 12 12 15 13 11 15 19 22 23 24 28 29 31 33 32 30 30 30 28 27 28 26 25 25 24 22 21 20 18 16 14 13 13 12 13 13 12 13 13 12 12 11 11 10 11 11 12 12 13 14 14 15 15 15 14 15 15 15 17 19 18 17 15 15 15 15 14 12 13
4 4 5 7 8 9 5 4 3 3 4 10 11 12 16 19 19 18 17 15 17 20 20 19 16 13 12 12 13 13 13 10 9 13 17 20 22 25 28 30 31 31 31 32 32 32 30 28 30 29 28 28 26 25 24 22 20 17 15 14 14 13 13 13 13 13 14 13 12 12 11 11 12 12 12 13 13 14 14 14 14 15 15 16 16 16 18 19 18 16 14 14 13 13 14 13 12
4 3 4 6 5 6 5 2 3 3 4 7 8 11 16 19 20 20 18 18 20 20 18 17 16 14 13 12 13 13 12 11 12 14 17 20 22 25 26 27 31 32 32 35 34 33 32 30 31 30 29 30 28 26 25 23 21 20 16 15 15 14 13 14 14 14 15 14 13 12 12 12 12 13 13 13 14 15 15 15 14 15 16 16 15 14 14 15 15 14 13 14 14 14 14 12 10
5 4 5 7 3 2 5 0 2 4 4 6 10 12 14 16 18 18 16 15 19 19 16 15 14 15 15 11 10 12 14 15 14 14 15 18 21 23 26 28 31 32 32 35 34 33 33 31 31 31 30 31 28 27 26 23 21 19 17 16 16 15 14 15 15 15 16 15 14 13 12 13 13 14 14 14 14 15 15 15 14 14 16 16 14 13 13 14 13 14 13 13 14 15 15 13 10
7 7 9 10 5 4 5 2 2 5 4 3 8 11 10 10 11 10 4 5 12 13 11 14 14 14 13 10 10 13 15 15 14 15 15 16 20 25 28 29 31 31 31 35 35 33 34 34 34 32 30 30 29 28 26 23 21 18 16 15 14 14 13 14 15 14 15 14 13 13 13 14 14 14 14 14 14 14 15 15 15 15 17 17 15 13 14 15 15 15 15 14 13 15 17 17 14
6 8 12 12 7 4 2 3 4 5 3 1 4 10 8 4 6 6 1 2 8 6 7 14 14 11 10 11 12 14 14 14 13 14 15 16 20 24 26 27 28 30 30 35 39 37 38 37 36 34 32 31 30 29 27 24 22 19 17 15 13 11 11 12 13 12 12 13 13 13 14 14 15 15 14 14 14 14 15 16 16 17 18 18 16 15 16 17 17 16 14 14 14 14 16 19 18
5 3 5 8 6 3 2 1 3 4 4 0 2 6 9 2 7 6 4 4 6 4 6 12 11 8 10 11 11 11 12 12 12 13 14 16 19 22 24 27 30 31 30 35 41 41 40 39 37 36 33 32 31 29 28 26 23 21 20 18 15 13 11 11 13 14 13 13 14 13 14 15 15 15 15 15 14 14 16 16 17 18 20 20 18 17 17 17 16 16 14 14 15 15 15 19 21
3 1 1 3 4 4 5 4 5 5 4 2 3 6 11 8 8 9 8 7 7 8 10 12 14 10 8 10 11 11 12 11 11 12 14 16 19 22 25 28 31 31 32 37 42 42 41 40 39 38 34 33 32 30 29 27 25 23 22 20 18 17 15 13 13 14 14 14 14 14 15 16 16 16 16 15 14 15 16 16 17 19 20 20 18 17 17 17 17 16 16 15 16 16 16 19 21
1 1 1 4 4 3 4 4 5 3 4 4 7 8 9 10 6 6 6 9 10 13 15 15 17 14 7 8 10 11 12 11 11 13 15 16 19 24 26 27 28 30 34 40 43 43 42 41 40 38 35 33 32 31 29 28 26 24 22 20 19 19 18 15 14 14 14 14 14 15 15 16 17 18 17 16 15 15 15 16 17 19 21 21 20 20 20 20 19 18 18 17 17 18 18 20 22
3 4 4 6 4 3 3 3 4 3 4 7 8 11 7 10 4 7 1 7 12 13 13 13 13 11 7 6 8 9 9 9 11 12 13 15 18 22 23 24 24 28 36 40 41 42 42 40 40 38 36 32 31 31 30 29 27 25 22 21 20 18 16 15 13 13 14 14 14 15 16 17 17 17 17 17 17 16 16 17 19 21 23 24 24 26 26 23 21 19 20 19 19 21 21 21 23
6 6 3 3 2 2 1 1 1 4 7 6 11 16 12 9 1 9 5 6 11 11 9 10 9 8 9 7 7 8 8 8 9 11 11 12 15 17 20 22 23 26 34 37 38 41 42 41 40 38 35 32 31 32 31 29 28 26 24 23 23 20 17 15 13 12 13 13 14 14 15 17 17 17 18 17 16 16 17 19 21 22 24 26 27 27 26 24 21 20 20 20 21 22 23 23 24
3 3 1 1 2 2 2 2 2 6 6 2 5 11 14 11 4 7 5 5 9 10 8 10 9 8 9 7 6 7 7 7 8 8 9 10 12 15 18 21 21 23 29 33 36 40 42 42 41 37 33 32 32 32 31 29 29 28 26 24 23 21 18 17 15 13 12 12 13 13 13 15 15 15 16 16 15 16 18 20 22 24 25 26 27 26 25 25 24 22 20 21 22 22 23 23 25
3 3 3 3 4 2 3 3 3 6 5 1 2 3 10 14 9 6 5 4 8 9 9 9 8 7 7 5 5 5 5 6 7 7 8 9 11 12 16 21 22 23 28 31 33 38 41 42 42 37 33 35 34 33 33 31 30 29 27 25 23 21 19 18 16 14 13 12 13 13 13 13 13 13 13 14 15 17 19 21 22 24 25 26 28 27 27 28 27 24 22 22 23 23 23 24 26
7 6 5 5 3 2 5 4 2 5 4 2 4 2 7 9 8 12 16 14 12 10 11 10 7 8 5 1 2 3 4 6 6 7 8 9 10 11 15 20 21 22 26 29 31 37 41 41 41 37 34 37 37 35 34 32 30 28 27 25 23 20 19 18 16 15 14 13 13 14 14 13 13 14 15 16 17 19 20 22 24 25 26 28 29 29 29 29 27 26 25 24 25 25 24 25 27
7 3 2 5 4 4 6 5 5 7 5 2 4 2 5 3 1 8 14 14 12 10 11 9 7 9 4 2 1 3 4 6 5 6 7 9 10 12 14 18 20 21 25 28 29 36 41 41 41 38 35 39 40 36 34 31 29 28 26 25 23 21 19 17 16 16 15 15 15 15 15 15 15 15 16 18 20 20 21 23 24 26 27 28 28 28 29 28 26 25 25 25 26 25 25 26 27
3 2 1 4 4 5 5 4 2 3 6 5 5 4 7 3 0 2 2 4 9 12 14 10 9 11 7 4 5 6 7 6 6 7 8 9 10 12 15 17 19 20 24 28 30 37 44 44 44 39 37 42 41 37 36 32 29 27 26 25 24 22 20 17 17 16 16 15 15 16 16 16 16 16 17 18 19 20 21 23 24 25 26 26 27 27 26 26 25 24 25 25 26 25 25 27 27
4 3 4 2 0 2 5 3 1 1 7 7 4 7 9 4 4 6 7 5 8 11 13 13 13 12 8 7 8 8 8 7 7 7 8 9 9 12 15 17 19 22 26 30 35 44 48 47 46 40 36 41 42 38 36 32 29 27 26 26 24 22 21 19 18 17 15 15 15 16 16 16 16 16 17 18 18 20 21 23 24 25 25 24 25 25 25 25 24 24 25 26 26 25 26 27 27
4 4 4 3 2 1 2 4 1 2 8 7 6 11 12 9 5 4 8 8 9 12 12 11 11 10 9 9 10 9 8 6 7 8 8 8 9 12 15 18 21 24 28 33 36 43 46 47 49 43 37 41 42 38 36 32 30 28 26 25 24 22 21 19 18 16 15 15 15 14 14 15 16 16 17 17 17 19 21 23 23 23 23 21 22 23 24 24 23 24 25 25 26 26 26 27 27
1 2 1 1 2 3 3 2 4 6 7 7 12 17 14 12 6 5 10 11 12 14 13 10 10 10 9 10 11 10 7 5 6 8 8 8 9 12 15 17 20 23 27 30 32 39 44 45 47 43 38 42 42 37 35 32 30 28 26 25 23 21 20 18 17 15 14 14 14 13 14 15 16 16 16 17 18 19 21 21 20 19 19 20 21 22 22 23 23 24 25 25 25 25 26 27 26
1 2 1 1 2 3 3 2 2 5 6 8 15 18 13 7 5 9 13 13 12 12 11 11 12 11 10 10 9 8 7 6 7 7 7 9 10 12 15 17 19 22 24 27 31 37 40 39 40 40 38 39 39 37 34 31 29 28 26 24 22 20 19 17 16 14 13 13 12 13 13 14 15 16 17 17 20 21 21 19 17 17 18 20 20 21 22 22 22 24 24 24 25 24 26 27 27
5 5 6 4 2 1 2 2 1 3 6 7 9 14 13 2 6 9 12 11 11 10 9 9 9 10 11 9 8 8 7 7 7 7 8 9 9 10 13 15 16 18 21 27 31 33 33 33 36 38 39 38 37 36 34 31 29 27 25 23 21 19 18 16 14 13 12 11 11 12 13 14 15 16 17 19 21 21 21 21 20 19 19 20 21 22 21 21 22 23 24 24 25 25 26 27 28
8 7 8 9 7 4 3 5 3 2 5 7 4 11 16 3 6 3 4 5 7 7 8 7 7 10 10 8 9 8 7 8 8 8 7 6 7 8 11 13 14 17 20 24 27 28 29 31 33 35 38 39 38 36 33 30 28 26 24 22 19 18 16 15 13 11 10 10 10 11 12 13 15 16 18 20 21 22 22 23 22 22 20 20 21 21 21 20 21 23 23 24 24 24 26 27 29
Wind_Direction
153 160 150 138 129 195 207 255 237 148 251 231 151 200 169 175 91 176 171 163 181 162 161 104 151 143 134 356 127 100 27 249 30 218 176 84 111 117 146 142 144 162 153 121 102 68 41 37 44 37 47 55 64 74 63 60 48 47 55 65 72 66 74 76 68 66 62 60 58 54 50 46 46 43 35 33 30 24 21 12 9 8 3 357 351 346 345 343 334 329 331 329 323 316 314 314 314
149 160 157 136 128 256 182 298 264 177 228 224 172 202 139 157 199 199 185 176 158 120 138 132 134 106 48 13 40 125 71 34 20 41 85 119 123 105 147 142 143 146 138 141 130 93 54 48 58 51 59 70 76 83 83 82 70 64 62 66 71 58 64 66 62 58 51 48 47 48 48 47 49 50 44 37 31 24 19 13 8 5 4 3 358 355 350 351 349 340 334 330 322 315 310 308 311
146 148 166 191 140 294 154 209 258 207 239 251 169 161 142 176 199 194 179 161 113 116 132 127 134 103 143 198 170 224 171 73 82 93 106 151 139 110 151 146 146 141 142 149 126 98 70 72 77 66 64 72 77 82 82 82 83 79 75 70 68 63 57 51 51 47 45 43 42 44 40 34 25 21 27 27 26 18 15 11 4 358 354 354 353 353 349 348 348 342 338 336 329 319 310 305 304
149 146 172 224 192 230 208 220 262 251 248 268 174 159 174 193 185 153 124 125 121 134 137 143 151 58 256 212 159 307 124 114 131 107 129 163 144 132 153 149 147 147 151 145 121 93 87 101 89 82 78 76 77 78 79 77 79 78 78 74 69 69 63 60 56 51 49 45 44 42 34 23 2 346 349 354 7 8 16 13 2 355 344 344 346 342 343 346 342 337 336 336 334 323 312 307 304
148 138 157 259 247 215 236 249 249 249 254 261 303 161 188 196 163 133 122 134 138 147 144 170 164 78 266 248 74 253 122 115 145 156 131 146 152 149 153 149 148 153 150 142 126 89 94 120 103 98 91 86 88 82 80 74 73 74 73 72 70 68 65 64 60 58 53 49 48 46 41 35 27 15 4 1 4 360 3 358 350 343 322 316 326 326 337 346 337 333 330 329 331 320 312 308 303
135 107 97 21 299 348 243 237 224 233 273 238 288 161 186 186 153 139 133 143 153 187 179 201 183 139 194 112 237 316 66 107 145 158 142 153 163 153 148 149 150 152 147 147 139 109 112 126 117 115 105 99 97 93 92 84 78 75 72 71 70 68 66 63 61 59 52 49 45 42 40 36 33 26 18 14 9 359 354 352 350 346 331 320 317 318 325 327 317 320 318 320 326 314 312 309 302
160 143 90 115 141 309 247 242 248 235 55 14 326 149 178 165 146 142 145 158 183 234 220 213 171 161 176 126 187 51 38 327 137 158 163 164 161 153 148 145 144 148 149 151 145 133 132 130 125 121 117 111 103 102 98 96 92 86 81 75 72 70 67 62 61 57 50 48 43 40 36 32 28 22 17 10 3 356 352 353 352 349 347 340 333 327 324 320 314 315 311 308 310 306 309 308 303
167 158 71 245 190 238 255 248 259 249 36 354 329 299 173 154 152 153 161 170 181 197 197 195 190 213 165 134 197 113 116 161 151 162 161 162 160 156 148 141 143 149 151 151 149 142 141 137 132 127 124 120 113 110 103 102 98 94 89 81 77 71 66 61 56 52 47 42 39 36 33 29 25 19 15 9 4 359 355 354 353 348 344 342 342 337 330 325 321 318 314 309 305 302 304 303 303
127 351 196 245 233 223 252 251 258 266 289 249 245 270 173 157 164 164 170 177 169 180 188 174 186 224 140 159 194 105 169 161 152 158 159 162 161 159 150 149 152 152 151 151 154 151 151 149 144 138 133 130 126 122 116 112 103 99 91 82 78 68 59 51 44 39 36 31 29 25 22 19 15 13 9 7 4 2 1 358 357 352 344 339 338 337 334 332 329 322 315 312 308 305 304 303 302
144 356 213 236 247 234 245 241 224 244 212 214 233 208 178 165 174 176 177 183 169 169 164 146 186 230 153 168 165 107 174 156 155 159 161 166 162 161 155 157 158 153 154 153 156 156 158 156 155 152 145 143 137 134 130 121 111 102 88 78 67 59 51 42 36 30 26 23 20 15 13 9 6 4 0 359 358 358 359 357 355 351 346 342 340 336 333 331 330 326 319 314 311 308 305 303 300
200 87 256 239 235 242 254 250 219 205 139 201 226 183 178 173 178 187 185 183 172 163 145 147 202 210 190 199 168 116 156 158 164 161 164 170 164 161 159 161 161 157 158 157 158 155 155 157 159 158 155 154 148 143 135 126 118 105 90 82 67 60 53 47 42 36 32 27 24 19 16 12 8 5 1 358 356 356 354 353 351 347 344 341 340 337 333 329 327 325 321 318 314 311 307 302 299
232 147 206 241 242 256 279 289 260 218 184 209 195 162 167 178 182 194 196 194 179 178 172 181 191 166 187 232 154 133 159 171 171 165 168 171 167 166 163 163 162 160 160 158 158 156 153 155 155 154 153 151 148 142 133 124 113 105 95 87 80 73 66 60 54 48 44 38 35 31 27 24 21 17 12 9 5 3 359 355 352 348 345 340 339 337 333 329 325 321 318 315 313 311 307 303 300
257 174 215 242 270 289 284 293 281 224 228 211 184 148 160 181 195 206 197 198 187 189 193 186 169 187 208 226 124 150 174 180 170 168 169 166 170 171 166 165 164 162 161 158 157 158 155 154 153 147 144 139 135 132 124 118 109 102 95 87 81 75 70 65 59 53 48 43 39 34 32 29 26 24 21 19 17 16 13 9 5 360 355 350 346 341 337 333 328 323 318 314 311 308 303 301 300
265 202 244 246 79 291 258 280 250 230 234 174 143 139 166 185 205 214 194 206 202 189 187 167 162 218 226 181 174 180 183 180 169 168 166 165 171 171 170 170 169 168 165 162 161 161 159 157 154 147 143 138 130 126 120 115 110 103 95 85 77 69 64 58 52 48 43 40 35 30 26 23 21 19 18 16 15 14 14 12 10 9 5 2 357 353 348 343 338 332 326 320 315 311 306 303 302
250 176 248 247 213 252 218 256 259 247 238 145 141 148 170 185 165 204 204 215 207 124 97 157 184 216 203 189 199 187 177 173 168 166 164 167 169 172 177 175 176 178 174 169 169 165 163 163 156 152 148 145 138 132 126 118 113 103 94 82 74 65 57 51 46 42 38 36 32 28 23 20 17 13 12 10 9 7 6 5 6 6 3 2 359 357 355 352 349 344 338 332 326 320 315 311 308
270 173 213 244 235 241 201 211 199 249 234 134 141 154 172 176 173 210 218 240 189 126 168 184 192 238 248 182 1 167 169 165 166 165 163 165 166 172 178 179 179 182 181 175 174 171 167 165 160 159 154 152 148 141 134 125 115 100 90 78 68 59 52 46 44 40 36 34 30 28 25 22 20 16 15 11 8 5 2 0 360 359 358 356 355 355 353 352 350 348 346 342 338 333 327 322 316
257 224 223 244 230 233 201 190 185 247 106 129 148 171 184 173 173 220 42 270 224 170 199 203 198 248 279 106 8 162 162 160 164 164 166 169 170 176 181 183 181 182 185 178 176 174 168 167 164 164 162 159 155 147 141 129 118 106 94 78 66 54 46 41 38 33 30 28 23 23 22 21 18 15 14 11 10 8 4 2 359 358 355 352 352 351 350 349 348 347 346 344 342 338 336 334 331
239 228 231 247 235 232 209 201 198 339 57 155 173 189 200 185 163 167 156 207 212 189 207 218 236 240 239 286 357 163 160 161 167 170 174 178 181 184 185 187 185 182 181 179 179 175 171 172 171 171 169 164 157 149 140 128 118 109 95 79 65 50 42 35 31 27 25 23 20 22 22 19 16 14 10 7 7 5 4 2 0 359 356 354 353 351 350 350 348 347 346 344 343 341 341 342 340
237 219 245 250 236 236 212 229 217 202 19 151 178 198 213 197 154 160 202 205 191 212 216 214 238 234 221 222 188 167 165 168 174 180 183 184 188 188 186 185 186 184 180 179 180 179 178 179 177 177 175 166 157 150 139 127 116 106 90 73 59 47 38 31 27 24 21 20 20 23 24 18 16 15 8 5 5 4 3 0 359 358 356 355 354 352 352 352 350 349 348 346 345 346 346 344 341
218 217 250 252 282 278 225 226 223 174 76 158 182 188 210 206 144 163 213 212 196 218 219 200 224 230 210 183 171 172 173 178 182 188 191 191 193 192 189 185 185 186 182 179 180 183 183 184 185 183 180 169 163 157 147 134 119 107 88 71 58 46 34 28 24 20 18 17 18 22 21 16 16 15 8 7 7 5 4 0 359 358 358 356 355 355 355 353 352 351 350 350 350 348 346 343 339
167 216 266 4 35 280 205 196 207 157 227 216 173 163 205 195 151 186 199 216 222 225 222 208 219 222 196 167 169 177 179 184 189 193 196 196 196 197 195 189 187 185 180 178 180 185 186 189 190 187 183 174 169 165 158 146 125 111 94 76 60 45 33 27 21 17 15 14 15 17 15 13 14 13 9 7 6 5 3 1 1 360 359 358 357 358 357 354 354 354 352 352 351 346 343 342 338
198 217 297 17 201 269 90 129 172 151 184 202 168 174 189 144 178 211 202 223 236 225 222 219 225 214 173 168 172 178 184 188 192 196 199 198 197 198 195 188 185 180 180 180 177 183 188 191 192 188 185 179 175 173 166 154 137 128 120 97 72 52 35 27 20 17 14 11 11 10 11 11 11 10 6 5 4 3 1 360 360 358 358 357 357 356 355 355 355 354 352 350 348 345 343 340 337
246 218 206 228 213 255 3 78 156 170 188 189 181 182 150 160 216 218 216 232 237 72 173 222 234 203 161 167 171 178 188 191 195 198 199 198 198 197 193 188 185 181 183 182 177 181 189 194 195 190 186 184 181 178 171 160 154 148 134 108 85 63 43 31 21 18 14 10 8 6 7 6 6 5 2 1 1 1 359 358 357 356 356 356 356 355 354 354 353 352 349 348 346 344 341 339 337
258 240 177 204 196 235 305 47 181 195 224 209 150 167 174 204 223 203 229 238 234 105 90 154 228 175 157 167 176 186 191 193 198 200 200 200 200 197 193 190 187 184 184 183 180 183 191 195 195 191 189 189 185 179 172 167 164 151 132 110 92 73 54 38 22 18 11 6 2 1 1 359 359 358 358 358 358 359 357 355 355 355 355 355 355 354 353 352 352 350 348 347 345 343 340 337 332
226 235 171 172 193 236 273 330 213 195 239 354 177 220 200 211 252 276 245 242 231 202 140 136 175 166 172 183 186 191 194 197 200 200 200 202 199 193 192 191 187 187 186 183 182 183 192 196 193 192 192 190 187 180 174 171 166 153 137 124 104 87 67 46 24 16 6 360 355 351 352 353 354 354 355 356 356 357 356 356 356 355 354 354 355 353 351 351 350 349 347 345 343 341 338 333 326
212 219 184 202 218 247 244 236 204 187 233 156 228 244 200 171 315 266 251 246 222 198 183 177 172 180 190 194 192 193 196 199 200 199 199 198 194 194 195 193 191 191 188 184 184 184 192 195 192 192 194 192 188 181 178 176 169 163 154 145 129 115 88 51 25 8 356 350 345 344 347 348 350 351 351 352 354 356 356 356 354 353 353 352 352 351 348 348 348 346 345 343 341 337 332 326 320
199 221 275 247 261 282 235 251 176 198 234 186 237 260 223 123 268 257 252 237 189 180 195 194 188 201 198 199 199 197 201 201 199 196 195 195 197 199 197 195 195 192 187 185 185 187 192 192 192 196 197 194 189 184 183 181 176 176 171 164 160 151 139 49 354 337 335 333 333 337 340 343 345 346 347 350 352 353 354 352 351 350 349 348 348 347 345 346 345 344 341 340 338 334 329 323 316
65 258 271 247 265 267 236 246 225 211 221 190 231 268 259 120 229 245 203 107 169 178 199 198 205 215 205 204 202 200 207 205 198 194 196 197 200 200 196 195 193 189 188 187 185 190 193 191 194 197 196 195 191 188 187 186 187 187 185 183 185 186 204 232 261 287 309 317 325 331 335 339 341 342 343 345 347 349 349 348 348 347 344 344 344 342 343 344 343 341 339 338 336 333 329 324 317
122 224 270 239 252 258 221 217 204 201 205 176 201 267 244 202 228 240 153 125 175 185 206 203 211 218 211 209 204 206 209 202 197 201 205 202 201 198 196 195 189 187 189 188 190 195 193 190 194 196 196 196 192 191 191 192 193 193 195 196 195 199 213 230 246 268 294 306 316 324 327 333 335 337 335 337 342 343 344 344 344 343 341 340 340 340 341 342 341 339 337 336 334 331 326 320 317
206 179 290 273 258 249 183 150 144 186 188 161 200 279 245 206 227 233 136 146 172 196 219 210 214 217 214 212 209 212 207 203 204 206 208 205 202 197 195 193 188 189 187 187 195 196 194 195 197 197 197 197 195 194 193 195 197 196 198 198 199 202 211 227 240 257 279 289 301 310 316 322 324 326 327 331 337 338 339 339 339 339 338 337 338 339 339 339 338 336 334 333 330 327 320 317 317
222 179 260 258 262 233 137 148 169 182 170 168 209 273 270 219 216 208 145 171 184 218 230 216 215 213 215 215 213 217 209 211 213 210 209 206 201 195 194 191 189 192 188 192 196 194 198 201 200 199 198 197 197 197 196 198 199 197 199 199 201 204 211 225 237 245 261 272 281 294 302 309 314 318 323 327 330 332 331 329 331 333 333 336 336 336 336 336 334 332 332 329 325 321 315 316 316
165 255 240 195 236 245 146 170 193 204 115 188 208 250 275 265 196 146 135 177 201 234 240 227 220 212 217 219 215 220 216 216 217 215 213 208 202 195 195 192 192 194 194 196 195 193 200 203 202 201 199 198 197 198 199 198 199 200 201 201 203 207 213 224 233 239 249 261 269 281 292 300 308 314 319 323 324 324 323 320 322 326 331 335 333 333 334 332 329 327 328 325 319 314 311 313 312
176 246 265 229 223 261 196 163 200 247 128 198 225 256 279 276 144 108 136 185 204 237 247 237 226 217 219 221 218 218 216 217 217 217 213 207 205 200 196 195 196 197 196 197 195 195 199 201 203 202 201 200 198 200 200 199 200 202 204 205 207 210 216 224 233 241 248 259 267 273 284 295 301 310 314 317 320 318 318 316 317 323 329 331 330 331 331 327 324 320 319 316 310 308 307 308 307
204 201 257 253 233 251 254 174 152 191 208 219 225 241 261 263 248 151 167 187 207 236 248 243 230 218 220 221 219 216 215 217 217 215 210 205 204 201 198 197 199 199 198 199 199 199 198 201 203 202 202 200 198 200 199 200 202 204 207 208 212 215 220 227 235 243 249 256 263 268 277 289 295 304 309 311 315 314 313 311 312 319 324 327 327 327 326 323 319 312 306 305 304 301 301 302 302
262 241 254 271 246 235 243 241 154 165 213 235 223 229 252 262 264 251 204 181 215 244 249 249 236 221 223 222 219 215 215 222 222 212 206 203 200 198 198 198 200 201 199 199 201 201 199 201 203 201 203 200 199 201 199 201 203 205 209 209 214 218 223 231 236 241 247 252 257 263 272 282 290 298 304 307 310 308 308 304 304 313 319 323 323 323 323 317 309 305 302 301 299 295 293 295 296
271 266 265 273 265 256 244 177 153 181 224 242 234 236 251 262 267 268 251 189 216 252 254 252 241 226 227 223 219 215 218 228 224 209 201 198 197 195 197 198 200 201 200 198 199 200 200 201 201 201 202 200 199 200 199 200 201 204 207 210 216 220 225 231 237 239 243 250 254 261 270 279 285 292 298 302 304 305 305 299 299 308 315 319 320 317 313 307 304 304 302 299 297 295 291 290 293
257 255 256 257 259 270 263 120 124 188 242 252 245 245 254 262 266 268 266 237 230 250 254 252 240 228 230 224 219 215 222 231 212 199 197 193 195 196 198 199 199 199 199 197 198 200 200 200 200 199 200 201 200 199 199 200 199 200 203 208 213 218 225 229 236 241 244 249 253 262 270 277 282 287 295 298 298 299 297 292 293 302 310 315 315 310 308 309 308 304 300 298 296 296 296 294 298
231 238 252 259 251 265 274 106 133 175 220 259 260 260 259 261 263 261 259 254 249 247 248 252 246 235 230 223 222 219 224 225 194 197 198 193 194 195 198 200 198 197 197 197 199 200 199 199 201 200 200 202 201 202 202 202 202 201 201 206 209 213 223 227 231 237 244 250 253 260 269 275 281 285 290 292 292 293 291 286 287 297 309 314 313 309 308 309 306 300 298 298 296 294 295 295 301
211 225 248 262 256 273 282 99 117 178 219 270 282 282 271 264 264 258 247 244 251 251 246 251 252 246 237 222 220 221 223 220 207 207 201 195 195 193 196 200 199 198 198 198 199 199 198 198 200 200 202 203 203 204 204 204 206 205 203 205 210 213 221 229 230 234 242 249 253 260 268 275 280 282 285 287 290 293 292 287 288 298 309 313 308 302 299 297 295 293 294 297 301 299 294 293 294
205 207 233 249 241 270 267 260 110 193 225 289 294 284 271 263 260 256 245 239 251 260 258 255 250 245 244 231 216 216 221 223 215 209 202 196 194 193 197 200 199 199 198 198 197 196 197 197 199 200 202 204 204 206 206 205 206 208 208 210 214 218 224 232 236 241 246 249 255 262 270 275 278 280 282 285 288 291 289 285 287 296 308 311 303 294 289 287 288 291 294 295 299 301 299 296 289
211 212 227 242 240 224 248 335 334 236 212 287 297 286 264 238 238 248 239 240 259 265 268 264 250 240 241 233 220 219 222 224 215 205 199 195 195 197 200 200 199 199 199 198 196 195 197 199 200 201 202 203 205 207 206 204 205 206 208 211 218 224 228 233 238 244 246 248 256 263 268 272 276 279 281 284 285 288 287 284 289 300 310 312 302 290 287 289 289 291 294 292 291 292 295 296 289
224 220 229 243 261 251 238 9 330 282 244 185 330 307 286 179 184 230 193 237 261 254 259 266 254 228 221 226 227 226 226 223 216 207 198 196 198 201 202 200 199 201 201 201 200 200 200 201 201 201 202 203 205 207 205 203 203 203 204 206 209 216 223 225 228 231 234 244 256 263 269 273 277 280 283 286 288 290 289 290 297 308 313 311 303 293 290 293 293 291 290 287 285 283 286 290 287
238 223 234 242 253 257 231 241 271 277 280 343 38 303 288 215 176 198 165 215 258 247 251 265 259 218 199 219 224 220 224 219 215 212 201 199 199 200 202 200 200 202 201 202 203 203 202 202 201 202 202 203 204 204 203 202 202 203 206 208 209 212 217 221 227 233 237 248 259 266 272 277 281 284 288 291 294 295 295 299 307 314 315 311 304 295 291 291 289 286 283 279 280 278 276 278 282
241 82 47 169 181 207 206 208 239 269 315 301 187 234 276 273 211 197 180 194 241 253 249 258 265 250 206 209 217 216 220 211 205 209 206 203 201 201 203 201 202 201 200 203 203 202 202 201 202 202 202 203 204 203 202 202 202 205 209 212 217 221 224 227 233 241 247 255 263 268 275 280 285 287 290 295 296 294 296 302 309 313 312 307 299 290 286 286 284 281 278 275 274 271 267 268 274
336 70 72 110 129 160 173 211 248 271 322 268 194 186 265 275 190 180 211 205 222 245 245 244 254 260 238 209 215 217 216 210 205 207 207 206 204 204 203 202 200 198 201 204 203 201 201 201 201 202 201 202 203 202 202 204 204 207 210 212 218 223 228 232 236 243 250 256 263 269 275 280 284 288 292 297 296 292 296 304 310 313 311 307 300 294 293 290 284 280 277 274 271 267 263 263 268
136 139 101 91 91 90 133 242 259 261 272 248 190 168 243 279 166 135 176 205 213 235 246 245 245 257 263 230 217 215 210 208 210 210 211 208 206 205 201 200 197 197 204 205 202 201 200 200 201 201 200 201 201 202 202 204 206 207 209 212 216 220 225 230 233 241 247 253 261 266 273 278 282 288 294 298 297 295 301 309 314 314 311 309 305 303 302 296 287 281 277 273 269 267 265 261 262
140 156 120 104 127 100 136 245 265 268 259 224 198 185 208 274 196 141 150 185 200 213 233 250 251 254 257 239 215 208 200 200 207 211 213 208 205 200 195 197 194 195 203 203 200 201 200 199 200 199 199 199 200 201 202 204 207 208 211 214 217 219 221 226 229 234 241 249 257 264 271 276 282 288 293 296 293 295 305 314 316 314 312 310 308 306 302 296 289 283 277 272 267 265 264 262 261
156 168 158 254 234 161 198 189 156 249 259 195 200 193 201 239 233 151 161 183 201 211 224 241 245 242 244 232 208 199 191 195 201 205 206 200 198 194 193 198 195 191 196 198 199 200 199 199 199 197 196 197 199 200 201 204 207 210 213 215 218 220 221 224 227 231 234 240 250 258 264 271 278 283 287 286 283 291 307 315 316 313 311 308 305 303 297 295 292 284 275 271 267 264 263 262 262
205 178 166 253 272 268 243 221 185 236 256 125 120 174 214 241 247 209 208 209 214 226 235 240 240 237 238 224 200 187 180 193 199 199 198 194 195 194 194 197 194 189 191 194 195 197 199 199 199 195 193 196 198 199 202 204 206 209 212 215 217 219 221 223 227 232 233 237 245 251 254 260 268 271 272 272 275 291 307 313 314 311 307 305 303 300 297 295 292 284 276 271 267 265 264 262 261
190 182 182 219 230 262 256 241 241 259 264 134 123 158 239 260 258 220 217 218 211 218 236 240 242 246 250 171 172 184 190 202 204 201 197 196 197 194 192 193 193 191 191 191 193 196 199 199 197 195 194 197 199 200 201 202 205 209 212 214 216 217 220 223 226 231 234 238 244 250 254 259 265 269 271 275 283 298 309 312 313 310 307 306 303 300 298 295 289 281 277 273 269 267 265 263 262
189 174 179 228 207 222 257 268 280 288 300 224 153 182 238 256 267 207 214 221 211 217 238 235 238 250 248 94 186 220 214 212 209 210 207 202 198 192 190 193 194 192 189 190 191 195 198 199 198 194 193 196 198 199 200 200 204 207 209 212 214 216 219 221 226 232 236 241 246 252 259 265 268 270 273 281 293 305 312 314 313 310 307 306 303 299 297 292 283 275 273 272 270 268 266 264 264
183 90 173 237 211 206 254 298 292 310 309 263 182 215 244 227 115 161 153 211 208 223 239 231 233 241 225 204 228 223 217 216 209 214 217 208 198 194 193 195 196 191 188 190 193 196 198 199 199 195 194 197 197 198 199 199 202 204 207 211 213 216 218 220 225 231 238 243 248 255 263 270 270 269 272 282 296 308 314 315 313 309 306 303 299 295 290 283 277 273 272 271 269 268 268 266 263
153 164 198 206 48 208 235 267 93 118 278 267 206 249 267 257 218 174 148 178 204 221 234 228 231 237 226 227 235 224 216 212 209 214 217 206 197 198 199 197 195 190 191 195 197 200 200 199 198 194 193 196 196 197 199 199 200 202 206 210 212 216 218 221 226 231 239 244 251 260 268 274 272 270 274 284 298 311 316 316 312 308 303 298 294 289 282 275 272 272 270 269 269 269 269 266 264
140 190 192 133 56 342 240 265 290 243 262 272 260 268 276 270 255 153 150 194 218 227 229 221 227 237 237 236 239 239 225 208 214 219 216 208 202 204 203 201 199 196 197 200 200 201 201 201 200 194 190 194 195 196 198 198 200 201 205 208 211 215 219 223 228 233 239 245 254 262 268 273 273 274 281 290 303 315 318 316 311 305 298 291 286 282 278 274 272 271 269 268 269 268 268 267 265
63 275 212 121 212 182 161 227 255 249 254 275 277 278 276 260 245 144 164 197 215 225 226 219 223 228 232 235 238 242 233 212 217 216 210 210 208 208 205 203 202 201 201 201 199 201 202 202 201 196 192 194 194 194 197 198 200 202 204 207 210 214 219 223 228 234 241 249 259 266 270 274 277 282 289 298 310 317 318 314 305 296 289 285 281 277 277 277 274 272 271 270 270 268 268 268 268
19 283 205 330 262 193 181 187 222 250 254 276 284 284 277 248 177 158 178 196 207 215 219 219 221 222 224 230 234 237 233 224 224 217 211 213 212 210 207 204 202 201 201 200 199 200 201 199 198 195 194 193 192 194 197 197 200 202 203 205 209 213 217 223 228 234 243 252 263 270 275 281 286 292 299 308 318 321 317 309 299 289 285 283 281 279 278 277 274 273 271 271 271 270 269 270 273
176 196 180 182 185 90 288 242 191 247 252 261 277 280 276 245 122 158 178 189 200 201 212 216 215 225 230 229 229 232 234 233 230 225 217 213 213 211 207 205 201 199 200 201 201 199 196 195 195 194 192 190 191 194 196 197 199 202 203 204 208 212 216 222 228 235 245 256 267 275 281 288 295 301 308 317 323 321 314 308 303 297 289 283 282 280 279 277 274 274 271 270 272 271 269 271 276
177 187 184 187 175 151 218 233 203 177 242 244 242 272 273 248 106 127 158 175 199 196 209 212 203 222 229 224 226 225 228 235 231 226 221 212 210 207 203 201 197 196 199 199 197 194 192 192 191 191 190 190 191 193 194 196 198 199 202 203 206 211 215 220 227 236 249 260 271 280 285 295 303 308 316 324 324 318 313 310 306 301 294 286 283 282 280 278 277 275 273 272 273 274 273 275 278